timestamp,surface_pressure_avg,surface_temp_avg,battery_voltage,lat,long
2019-08-21 00:00:00+00:00,273.4197,19.69,12.81,47.84626,-54.09684
2019-08-21 00:10:00+00:00,278.673,19.67,12.81,47.84626,-54.09684
2019-08-21 00:20:00+00:00,281.123,19.65,12.81,47.84626,-54.09684
2019-08-21 00:30:00+00:00,284.5764,19.68,12.81,47.84626,-54.09684
2019-08-21 00:40:00+00:00,292.2097,19.69,12.89,47.84626,-54.09684
2019-08-21 00:50:00+00:00,297.9614,19.68,12.89,47.84626,-54.09684
2019-08-21 01:00:00+00:00,302.138,19.68,12.81,47.84626,-54.09684
2019-08-21 01:10:00+00:00,307.3713,19.69,12.73,47.84626,-54.09684
2019-08-21 01:20:00+00:00,315.058,19.67,12.81,47.84626,-54.09684
2019-08-21 01:30:00+00:00,319.1614,19.68,12.81,47.84626,-54.09684
2019-08-21 01:40:00+00:00,323.7163,19.68,12.81,47.84626,-54.09684
2019-08-21 01:50:00+00:00,329.7897,19.66,12.81,47.84626,-54.09684
2019-08-21 02:00:00+00:00,333.843,19.66,12.81,47.84626,-54.09684
2019-08-21 02:10:00+00:00,333.4097,19.64,12.73,47.84626,-54.09684
2019-08-21 02:20:00+00:00,335.3214,19.6,12.81,47.84626,-54.09684
2019-08-21 02:30:00+00:00,336.6013,19.6,12.81,47.84626,-54.09684
2019-08-21 02:40:00+00:00,335.333,19.6,12.81,47.84626,-54.09684
2019-08-21 02:50:00+00:00,333.0379,19.6,12.81,47.84626,-54.09684
2019-08-21 03:00:00+00:00,332.8779,19.6,12.81,47.84626,-54.09684
2019-08-21 03:10:00+00:00,330.5379,19.6,12.73,47.84626,-54.09684
2019-08-21 03:20:00+00:00,328.1346,19.5,12.81,47.84626,-54.09684
2019-08-21 03:30:00+00:00,327.7779,19.5,12.81,47.84626,-54.09684
2019-08-21 03:40:00+00:00,326.2081,19.5,12.81,47.84626,-54.09684
2019-08-21 03:50:00+00:00,323.8179,19.5,12.81,47.84626,-54.09684
2019-08-21 04:00:00+00:00,322.1296,19.5,12.81,47.84626,-54.09684
2019-08-21 04:10:00+00:00,318.713,19.5,12.73,47.84626,-54.09684
2019-08-21 04:20:00+00:00,312.4897,19.5,12.81,47.84626,-54.09684
2019-08-21 04:30:00+00:00,308.4563,19.5,12.81,47.84626,-54.09684
2019-08-21 04:40:00+00:00,305.0262,19.5,12.81,47.84626,-54.09684
2019-08-21 04:50:00+00:00,303.098,19.5,12.81,47.84626,-54.09684
2019-08-21 05:00:00+00:00,299.0514,19.5,12.81,47.84626,-54.09684
2019-08-21 05:10:00+00:00,294.793,19.5,12.73,47.84626,-54.09684
2019-08-21 05:20:00+00:00,290.1981,19.5,12.81,47.84626,-54.09684
2019-08-21 05:30:00+00:00,285.3614,19.5,12.81,47.84626,-54.09684
2019-08-21 05:40:00+00:00,278.4314,19.5,12.81,47.84626,-54.09684
2019-08-21 05:50:00+00:00,271.4897,19.5,12.81,47.84626,-54.09684
2019-08-21 06:00:00+00:00,265.3763,19.5,12.81,47.84626,-54.09684
2019-08-21 06:10:00+00:00,258.5614,19.5,12.73,47.84626,-54.09684
2019-08-21 06:20:00+00:00,251.2464,19.5,12.81,47.84626,-54.09684
2019-08-21 06:30:00+00:00,245.2914,19.5,12.81,47.84626,-54.09684
2019-08-21 06:40:00+00:00,239.3897,19.5,12.81,47.84626,-54.09684
2019-08-21 06:50:00+00:00,233.3014,19.48,12.81,47.84626,-54.09684
2019-08-21 07:00:00+00:00,229.1847,19.45,12.81,47.84626,-54.09684
2019-08-21 07:10:00+00:00,223.9648,19.4,12.73,47.84626,-54.09684
2019-08-21 07:20:00+00:00,217.5515,19.4,12.81,47.84626,-54.09684
2019-08-21 07:30:00+00:00,212.3648,19.4,12.81,47.84626,-54.09684
2019-08-21 07:40:00+00:00,206.7881,19.4,12.81,47.84626,-54.09684
2019-08-21 07:50:00+00:00,200.4881,19.4,12.81,47.84626,-54.09684
2019-08-21 08:00:00+00:00,198.0764,19.4,12.81,47.84626,-54.09684
2019-08-21 08:10:00+00:00,195.9881,19.4,12.73,47.84626,-54.09684
2019-08-21 08:20:00+00:00,193.7914,19.4,12.81,47.84626,-54.09684
2019-08-21 08:30:00+00:00,194.0364,19.38,12.81,47.84626,-54.09684
2019-08-21 08:40:00+00:00,195.2131,19.3,12.81,47.84626,-54.09684
2019-08-21 08:50:00+00:00,198.2131,19.3,12.81,47.84626,-54.09684
2019-08-21 09:00:00+00:00,200.0598,19.3,12.81,47.84626,-54.09684
2019-08-21 09:10:00+00:00,201.3615,19.3,12.73,47.84626,-54.09684
2019-08-21 09:20:00+00:00,204.5081,19.3,12.89,47.84626,-54.09684
2019-08-21 09:30:00+00:00,209.8631,19.3,13.05,47.84626,-54.09684
2019-08-21 09:40:00+00:00,213.5914,19.3,13.21,47.84626,-54.09684
2019-08-21 09:50:00+00:00,214.6331,19.3,13.29,47.84626,-54.09684
2019-08-21 10:00:00+00:00,219.2198,19.3,13.37,47.84626,-54.09684
2019-08-21 10:10:00+00:00,226.5847,19.3,13.44,47.84626,-54.09684
2019-08-21 10:20:00+00:00,231.5581,19.3,13.6,47.84626,-54.09684
2019-08-21 10:30:00+00:00,234.1548,19.3,13.68,47.84626,-54.09684
2019-08-21 10:40:00+00:00,236.8548,19.3,13.84,47.84626,-54.09684
2019-08-21 10:50:00+00:00,241.8514,19.3,14.0,47.84626,-54.09684
2019-08-21 11:00:00+00:00,246.9498,19.3,14.0,47.84626,-54.09684
2019-08-21 11:10:00+00:00,249.1814,19.3,14.08,47.84626,-54.09684
2019-08-21 11:20:00+00:00,251.5648,19.3,14.24,47.84626,-54.09684
2019-08-21 11:30:00+00:00,254.1664,19.3,14.32,47.84626,-54.09684
2019-08-21 11:40:00+00:00,257.2248,19.2,14.32,47.84626,-54.09684
2019-08-21 11:50:00+00:00,260.2681,19.1,14.56,47.84626,-54.09684
2019-08-21 12:00:00+00:00,262.8748,19.1,14.56,47.84626,-54.09684
2019-08-21 12:10:00+00:00,266.3514,19.09,14.48,47.84626,-54.09684
2019-08-21 12:20:00+00:00,269.7164,19.0,14.64,47.84626,-54.09684
2019-08-21 12:30:00+00:00,273.2731,18.9,14.64,47.84626,-54.09684
2019-08-21 12:40:00+00:00,277.2714,18.9,14.64,47.84626,-54.09684
2019-08-21 12:50:00+00:00,283.4564,18.9,14.64,47.84626,-54.09684
2019-08-21 13:00:00+00:00,288.2014,18.94,14.48,47.84626,-54.09684
2019-08-21 13:10:00+00:00,291.2364,19.0,14.48,47.84626,-54.09684
2019-08-21 13:20:00+00:00,295.3613,19.0,14.48,47.84626,-54.09684
2019-08-21 13:30:00+00:00,302.9714,18.99,14.48,47.84626,-54.09684
2019-08-21 13:40:00+00:00,310.2713,18.9,14.4,47.84626,-54.09684
2019-08-21 13:50:00+00:00,316.8563,18.88,14.56,47.84626,-54.09684
2019-08-21 14:00:00+00:00,321.443,18.85,14.48,47.84626,-54.09684
2019-08-21 14:10:00+00:00,326.7463,18.89,14.4,47.84626,-54.09684
2019-08-21 14:20:00+00:00,330.9113,18.7,14.56,47.84626,-54.09684
2019-08-21 14:30:00+00:00,332.4763,18.69,14.48,47.84626,-54.09684
2019-08-21 14:40:00+00:00,333.0347,18.7,14.48,47.84626,-54.09684
2019-08-21 14:50:00+00:00,332.9063,18.7,14.48,47.84626,-54.09684
2019-08-21 15:00:00+00:00,332.4147,18.7,14.4,47.84626,-54.09684
2019-08-21 15:10:00+00:00,333.5397,18.7,14.32,47.84626,-54.09684
2019-08-21 15:20:00+00:00,335.3496,18.71,14.4,47.84626,-54.09684
2019-08-21 15:30:00+00:00,335.8363,18.92,14.4,47.84626,-54.09684
2019-08-21 15:40:00+00:00,332.9563,18.9,14.4,47.84626,-54.09684
2019-08-21 15:50:00+00:00,331.5913,18.67,14.4,47.84626,-54.09684
2019-08-21 16:00:00+00:00,332.4213,18.49,14.24,47.84626,-54.09684
2019-08-21 16:10:00+00:00,330.4763,18.66,14.24,47.84626,-54.09684
2019-08-21 16:20:00+00:00,327.1113,18.7,14.32,47.84626,-54.09684
2019-08-21 16:30:00+00:00,324.2163,18.7,14.32,47.84626,-54.09684
2019-08-21 16:40:00+00:00,321.488,18.7,14.08,47.84626,-54.09684
2019-08-21 16:50:00+00:00,318.0714,18.7,14.24,47.84626,-54.09684
2019-08-21 17:00:00+00:00,314.1813,18.7,14.08,47.84626,-54.09684
2019-08-21 17:10:00+00:00,311.948,18.7,13.92,47.84626,-54.09684
2019-08-21 17:20:00+00:00,309.1247,18.65,14.08,47.84626,-54.09684
2019-08-21 17:30:00+00:00,305.743,18.6,14.0,47.84626,-54.09684
2019-08-21 17:40:00+00:00,300.6231,18.7,14.08,47.84626,-54.09684
2019-08-21 17:50:00+00:00,296.2114,18.8,14.0,47.84626,-54.09684
2019-08-21 18:00:00+00:00,291.9164,18.89,14.0,47.84626,-54.09684
2019-08-21 18:10:00+00:00,285.4381,18.9,13.84,47.84626,-54.09684
2019-08-21 18:20:00+00:00,276.6231,19.13,14.0,47.84626,-54.09684
2019-08-21 18:30:00+00:00,271.0731,19.3,14.0,47.84626,-54.09684
2019-08-21 18:40:00+00:00,267.6597,19.39,14.0,47.84626,-54.09684
2019-08-21 18:50:00+00:00,259.9164,19.4,13.92,47.84626,-54.09684
2019-08-21 19:00:00+00:00,249.6414,19.49,13.84,47.84626,-54.09684
2019-08-21 19:10:00+00:00,244.4482,19.5,13.76,47.84626,-54.09684
2019-08-21 19:20:00+00:00,239.0832,19.5,13.84,47.84626,-54.09684
2019-08-21 19:30:00+00:00,230.5831,19.4,13.84,47.84626,-54.09684
2019-08-21 19:40:00+00:00,222.3531,19.3,13.84,47.84626,-54.09684
2019-08-21 19:50:00+00:00,219.0048,19.33,13.92,47.84626,-54.09684
2019-08-21 20:00:00+00:00,213.1898,19.3,13.84,47.84626,-54.09684
2019-08-21 20:10:00+00:00,206.6665,19.3,13.68,47.84626,-54.09684
2019-08-21 20:20:00+00:00,205.3465,19.3,13.76,47.84626,-54.09684
2019-08-21 20:30:00+00:00,206.4431,19.2,13.76,47.84626,-54.09684
2019-08-21 20:40:00+00:00,201.1531,19.28,13.76,47.84626,-54.09684
2019-08-21 20:50:00+00:00,198.7047,19.3,13.76,47.84626,-54.09684
2019-08-21 21:00:00+00:00,202.4265,19.0,13.68,47.84626,-54.09684
2019-08-21 21:10:00+00:00,203.9364,18.9,13.6,47.84626,-54.09684
2019-08-21 21:20:00+00:00,203.6164,18.81,13.6,47.84626,-54.09684
2019-08-21 21:30:00+00:00,204.9431,18.88,13.6,47.84626,-54.09684
2019-08-21 21:40:00+00:00,208.0714,18.9,13.53,47.84626,-54.09684
2019-08-21 21:50:00+00:00,211.7831,18.91,13.53,47.84626,-54.09684
2019-08-21 22:00:00+00:00,215.2381,18.94,13.44,47.84626,-54.09684
2019-08-21 22:10:00+00:00,220.2264,18.9,13.29,47.84626,-54.09684
2019-08-21 22:20:00+00:00,226.0664,18.9,13.29,47.84626,-54.09684
2019-08-21 22:30:00+00:00,230.6214,18.94,13.21,47.84626,-54.09684
2019-08-21 22:40:00+00:00,233.3315,19.0,13.21,47.84626,-54.09684
2019-08-21 22:50:00+00:00,238.1098,19.1,13.13,47.84626,-54.09684
2019-08-21 23:00:00+00:00,241.3247,19.2,13.05,47.84626,-54.09684
2019-08-21 23:10:00+00:00,243.8881,19.24,12.97,47.84626,-54.09684
2019-08-21 23:20:00+00:00,245.3365,19.28,13.05,47.84626,-54.09684
2019-08-21 23:30:00+00:00,250.0281,19.2,13.05,47.84626,-54.09684
2019-08-21 23:40:00+00:00,254.998,19.2,13.05,47.84626,-54.09684
2019-08-21 23:50:00+00:00,258.3598,19.2,13.05,47.84626,-54.09684
